| time (UTC) | temp F | wind direction | speed MPH | gust MPH | rain 1hr in | rain 24hr in | rain mn in | humidity % | barometer mb |
| 20260508050002 | 64 | 310 | 2.0 | 7.0 | 0.00 | 0.00 | 0.00 | 55 | 1013.5 |
| 20260508045456 | 64 | 86 | 0.0 | 7.0 | 0.00 | 0.00 | 0.00 | 56 | 1012.7 |
| 20260508044957 | 64 | 25 | 1.0 | 7.0 | 0.00 | 0.00 | 0.00 | 57 | 1012.9 |
| 20260508043957 | 64 | 93 | 2.0 | 6.0 | 0.00 | 0.00 | 0.00 | 60 | 1012.6 |
| 20260508043458 | 64 | 95 | 2.0 | 6.0 | 0.00 | 0.00 | 0.00 | 61 | 1012.5 |
| 20260508042457 | 64 | 118 | 3.0 | 6.0 | 0.00 | 0.00 | 0.00 | 63 | 1012.8 |
| 20260508041957 | 64 | 124 | 1.0 | 8.0 | 0.00 | 0.00 | 0.00 | 63 | 1013.1 |
| 20260508041457 | 65 | 90 | 3.0 | 8.0 | 0.00 | 0.00 | 0.00 | 64 | 1013.1 |
| 20260508040957 | 65 | 81 | 1.0 | 8.0 | 0.00 | 0.00 | 0.00 | 64 | 1013.5 |
| 20260508040456 | 65 | 98 | 2.0 | 7.0 | 0.00 | 0.00 | 0.00 | 65 | 1013.5 |
| 20260508035957 | 65 | 80 | 2.0 | 6.0 | 0.00 | 0.00 | 0.00 | 66 | 1013.3 |
| 20260508034959 | 65 | 78 | 2.0 | 6.0 | 0.00 | 0.00 | 0.00 | 67 | 1013.7 |
| 20260508034456 | 65 | 30 | 1.0 | 9.0 | 0.00 | 0.00 | 0.00 | 67 | 1013.8 |
| 20260508033957 | 65 | 88 | 3.0 | 9.0 | 0.00 | 0.00 | 0.00 | 68 | 1014.0 |
| 20260508033456 | 65 | 2 | 2.0 | 7.0 | 0.00 | 0.00 | 0.00 | 68 | 1014.1 |
| 20260508032957 | 65 | 42 | 2.0 | 9.0 | 0.00 | 0.00 | 0.00 | 68 | 1014.1 |
| 20260508032459 | 65 | 66 | 1.0 | 9.0 | 0.00 | 0.00 | 0.00 | 68 | 1014.1 |
| 20260508031957 | 65 | 13 | 1.0 | 9.0 | 0.00 | 0.00 | 0.00 | 68 | 1014.3 |
| 20260508031459 | 65 | 23 | 1.0 | 8.0 | 0.00 | 0.00 | 0.00 | 67 | 1014.5 |
| 20260508030957 | 65 | 11 | 4.0 | 8.0 | 0.00 | 0.00 | 0.00 | 67 | 1014.4 |
| 20260508030457 | 65 | 11 | 1.0 | 5.0 | 0.00 | 0.00 | 0.00 | 67 | 1014.2 |
| 20260508025456 | 65 | 22 | 2.0 | 5.0 | 0.00 | 0.00 | 0.00 | 67 | 1014.2 |
| 20260508024957 | 65 | 3 | 1.0 | 5.0 | 0.00 | 0.00 | 0.00 | 67 | 1014.0 |
| 20260508024456 | 66 | 1 | 2.0 | 5.0 | 0.00 | 0.00 | 0.00 | 67 | 1013.9 |
| 20260508023957 | 66 | 101 | 0.0 | 2.0 | 0.00 | 0.00 | 0.00 | 67 | 1013.9 |
| 20260508023457 | 66 | 101 | 0.0 | 2.0 | 0.00 | 0.00 | 0.00 | 68 | 1013.6 |
| 20260508022957 | 66 | 103 | 0.0 | 3.0 | 0.00 | 0.00 | 0.00 | 68 | 1013.4 |
| 20260508022457 | 66 | 103 | 0.0 | 3.0 | 0.00 | 0.00 | 0.00 | 68 | 1013.2 |
| 20260508021957 | 66 | 103 | 1.0 | 3.0 | 0.00 | 0.00 | 0.00 | 69 | 1013.2 |
| 20260508021459 | 66 | 86 | 0.0 | 2.0 | 0.00 | 0.00 | 0.00 | 69 | 1013.4 |
| 20260508020958 | 66 | 78 | 0.0 | 3.0 | 0.00 | 0.00 | 0.00 | 69 | 1013.4 |
| 20260508020456 | 66 | 78 | 1.0 | 6.0 | 0.00 | 0.00 | 0.00 | 70 | 1013.0 |
| 20260508015957 | 66 | 106 | 0.0 | 6.0 | 0.00 | 0.00 | 0.00 | 70 | 1012.8 |
| 20260508015456 | 66 | 142 | 3.0 | 8.0 | 0.00 | 0.00 | 0.00 | 70 | 1012.7 |
| 20260508014456 | 66 | 103 | 2.0 | 8.0 | 0.00 | 0.00 | 0.00 | 71 | 1012.8 |
| 20260508013957 | 66 | 58 | 2.0 | 9.0 | 0.00 | 0.00 | 0.00 | 71 | 1012.6 |
| 20260508013457 | 66 | 89 | 2.0 | 9.0 | 0.00 | 0.00 | 0.00 | 71 | 1012.8 |
| 20260508012958 | 66 | 81 | 2.0 | 9.0 | 0.00 | 0.00 | 0.00 | 72 | 1012.7 |
| 20260508012458 | 66 | 109 | 0.0 | 9.0 | 0.00 | 0.00 | 0.00 | 72 | 1012.2 |
| 20260508011459 | 66 | 103 | 7.0 | 12.0 | 0.00 | 0.00 | 0.00 | 72 | 1011.8 |
| 20260508010956 | 67 | 99 | 5.0 | 12.0 | 0.00 | 0.00 | 0.00 | 73 | 1011.7 |
| 20260508010457 | 67 | 87 | 4.0 | 12.0 | 0.00 | 0.00 | 0.00 | 73 | 1011.4 |
| 20260508005957 | 67 | 130 | 6.0 | 14.0 | 0.00 | 0.00 | 0.00 | 73 | 1011.3 |
| 20260508005457 | 67 | 136 | 7.0 | 15.0 | 0.00 | 0.00 | 0.00 | 73 | 1011.3 |
| 20260508004959 | 67 | 132 | 4.0 | 15.0 | 0.00 | 0.00 | 0.00 | 72 | 1011.4 |
| 20260508004457 | 68 | 123 | 3.0 | 15.0 | 0.00 | 0.00 | 0.00 | 73 | 1011.6 |
| 20260508003959 | 68 | 102 | 4.0 | 15.0 | 0.00 | 0.00 | 0.00 | 73 | 1011.8 |
| 20260508003457 | 68 | 90 | 6.0 | 15.0 | 0.00 | 0.00 | 0.00 | 72 | 1012.0 |
| 20260508002957 | 68 | 96 | 5.0 | 9.0 | 0.00 | 0.00 | 0.00 | 72 | 1012.1 |
| 20260508002457 | 68 | 110 | 3.0 | 9.0 | 0.00 | 0.00 | 0.00 | 73 | 1012.3 |
| 20260508002001 | 68 | 90 | 5.0 | 9.0 | 0.00 | 0.00 | 0.00 | 72 | 1013.0 |
| 20260508001457 | 69 | 111 | 3.0 | 8.0 | 0.00 | 0.00 | 0.00 | 72 | 1013.0 |
| 20260508000957 | 69 | 88 | 3.0 | 10.0 | 0.00 | 0.00 | 0.00 | 72 | 1013.0 |
| 20260508000457 | 69 | 26 | 4.0 | 10.0 | 0.00 | 0.00 | 0.00 | 72 | 1013.4 |
| 20260507234957 | 69 | 94 | 3.0 | 7.0 | 0.00 | 0.00 | 0.00 | 72 | 1013.8 |
| 20260507234456 | 69 | 90 | 1.0 | 7.0 | 0.00 | 0.00 | 0.00 | 72 | 1013.8 |
| 20260507233959 | 69 | 106 | 1.0 | 9.0 | 0.00 | 0.00 | 0.00 | 72 | 1013.8 |
| 20260507233457 | 69 | 22 | 2.0 | 9.0 | 0.00 | 0.00 | 0.00 | 72 | 1013.7 |
| 20260507233000 | 69 | 100 | 1.0 | 10.0 | 0.00 | 0.00 | 0.00 | 71 | 1013.6 |
| 20260507231958 | 70 | 51 | 2.0 | 12.0 | 0.00 | 0.00 | 0.00 | 71 | 1013.9 |
| 20260507231458 | 70 | 115 | 2.0 | 12.0 | 0.00 | 0.00 | 0.00 | 71 | 1013.9 |
| 20260507230958 | 70 | 62 | 4.0 | 12.0 | 0.00 | 0.00 | 0.00 | 70 | 1013.7 |
| 20260507230457 | 70 | 25 | 3.0 | 9.0 | 0.00 | 0.00 | 0.00 | 71 | 1013.7 |
| 20260507225456 | 69 | 54 | 1.0 | 8.0 | 0.00 | 0.01 | 0.00 | 71 | 1014.0 |
| 20260507224456 | 70 | 119 | 4.0 | 9.0 | 0.00 | 0.01 | 0.00 | 71 | 1014.0 |
| 20260507223957 | 70 | 97 | 3.0 | 8.0 | 0.00 | 0.01 | 0.00 | 71 | 1014.0 |
| 20260507222957 | 69 | 91 | 3.0 | 13.0 | 0.00 | 0.01 | 0.00 | 72 | 1014.1 |
| 20260507222457 | 69 | 96 | 5.0 | 13.0 | 0.00 | 0.01 | 0.00 | 71 | 1014.0 |
| 20260507221457 | 69 | 67 | 1.0 | 7.0 | 0.00 | 0.01 | 0.00 | 72 | 1014.1 |
| 20260507220957 | 69 | 86 | 2.0 | 7.0 | 0.00 | 0.01 | 0.00 | 72 | 1014.3 |
| 20260507220457 | 69 | 70 | 1.0 | 9.0 | 0.00 | 0.01 | 0.00 | 72 | 1014.5 |
| 20260507215957 | 69 | 19 | 4.0 | 9.0 | 0.00 | 0.01 | 0.00 | 72 | 1014.4 |
| 20260507214958 | 69 | 39 | 4.0 | 9.0 | 0.00 | 0.01 | 0.00 | 72 | 1014.4 |
| 20260507214500 | 69 | 104 | 3.0 | 13.0 | 0.00 | 0.01 | 0.00 | 71 | 1014.4 |
| 20260507213959 | 69 | 350 | 1.0 | 13.0 | 0.00 | 0.01 | 0.00 | 71 | 1014.6 |
| 20260507213457 | 69 | 70 | 3.0 | 13.0 | 0.00 | 0.01 | 0.00 | 71 | 1014.4 |
| 20260507212457 | 69 | 334 | 2.0 | 10.0 | 0.00 | 0.01 | 0.00 | 71 | 1014.5 |
| 20260507211957 | 69 | 68 | 3.0 | 12.0 | 0.00 | 0.01 | 0.00 | 71 | 1014.5 |
| 20260507211457 | 69 | 9 | 3.0 | 12.0 | 0.00 | 0.01 | 0.00 | 71 | 1014.2 |
| 20260507210457 | 68 | 35 | 3.0 | 10.0 | 0.00 | 0.01 | 0.00 | 70 | 1014.1 |
| 20260507205456 | 68 | 8 | 5.0 | 10.0 | 0.00 | 0.01 | 0.00 | 71 | 1014.6 |
| 20260507204957 | 69 | 13 | 5.0 | 10.0 | 0.00 | 0.01 | 0.00 | 71 | 1014.6 |
| 20260507204457 | 69 | 54 | 3.0 | 10.0 | 0.00 | 0.01 | 0.00 | 70 | 1014.7 |
| 20260507203958 | 69 | 44 | 2.0 | 9.0 | 0.00 | 0.01 | 0.00 | 70 | 1014.4 |
| 20260507203501 | 68 | 88 | 3.0 | 10.0 | 0.00 | 0.01 | 0.00 | 67 | 1014.1 |
| 20260507202457 | 68 | 85 | 5.0 | 13.0 | 0.00 | 0.01 | 0.00 | 66 | 1014.4 |
| 20260507202000 | 68 | 96 | 4.0 | 12.0 | 0.00 | 0.01 | 0.00 | 63 | 1014.4 |
| 20260507201457 | 68 | 87 | 2.0 | 8.0 | 0.00 | 0.01 | 0.00 | 60 | 1014.7 |
| 20260507200456 | 67 | 52 | 2.0 | 9.0 | 0.00 | 0.01 | 0.00 | 61 | 1014.8 |
| 20260507195957 | 67 | 91 | 4.0 | 9.0 | 0.00 | 0.01 | 0.00 | 58 | 1014.8 |
| 20260507195456 | 67 | 75 | 2.0 | 13.0 | 0.00 | 0.01 | 0.00 | 51 | 1014.6 |
| 20260507194957 | 67 | 77 | 5.0 | 13.0 | 0.00 | 0.01 | 0.00 | 54 | 1014.7 |
| 20260507194457 | 67 | 60 | 4.0 | 12.0 | 0.00 | 0.01 | 0.00 | 46 | 1014.5 |
| 20260507193958 | 67 | 73 | 6.0 | 12.0 | 0.00 | 0.01 | 0.00 | 37 | 1014.6 |
| 20260507193457 | 66 | 85 | 5.0 | 12.0 | 0.00 | 0.01 | 0.00 | 22 | 1014.5 |
| 20260507192958 | 66 | 105 | 5.0 | 12.0 | 0.00 | 0.01 | 0.00 | 19 | 1014.1 |
| 20260507192457 | 66 | 91 | 5.0 | 12.0 | 0.00 | 0.01 | 0.00 | 17 | 1014.1 |
| 20260507191959 | 66 | 77 | 3.0 | 10.0 | 0.00 | 0.01 | 0.00 | 17 | 1014.5 |
| 20260507191456 | 66 | 82 | 5.0 | 10.0 | 0.00 | 0.01 | 0.00 | 17 | 1014.5 |
| 20260507191000 | 66 | 104 | 3.0 | 10.0 | 0.00 | 0.01 | 0.00 | 17 | 1014.9 |
| 20260507190457 | 66 | 93 | 2.0 | 13.0 | 0.00 | 0.01 | 0.00 | 17 | 1014.9 |
| 20260507190002 | 65 | 95 | 3.0 | 13.0 | 0.00 | 0.01 | 0.00 | 17 | 1014.8 |
| 20260507185457 | 65 | 51 | 5.0 | 13.0 | 0.00 | 0.01 | 0.00 | 17 | 1015.2 |
| 20260507184957 | 65 | 64 | 4.0 | 9.0 | 0.00 | 0.01 | 0.00 | 17 | 1015.4 |
| 20260507184457 | 65 | 107 | 3.0 | 9.0 | 0.00 | 0.01 | 0.00 | 17 | 1015.3 |
| 20260507183957 | 65 | 66 | 2.0 | 7.0 | 0.00 | 0.01 | 0.00 | 17 | 1015.4 |
| 20260507183456 | 65 | 72 | 1.0 | 7.0 | 0.00 | 0.01 | 0.00 | 17 | 1016.0 |
| 20260507182957 | 65 | 64 | 3.0 | 7.0 | 0.00 | 0.01 | 0.00 | 17 | 1016.5 |
| 20260507182457 | 65 | 103 | 2.0 | 7.0 | 0.00 | 0.01 | 0.00 | 23 | 1016.4 |
| 20260507181957 | 65 | 34 | 1.0 | 5.0 | 0.00 | 0.01 | 0.00 | 25 | 1016.1 |
| 20260507181457 | 65 | 73 | 1.0 | 7.0 | 0.00 | 0.01 | 0.00 | 26 | 1016.3 |
| 20260507180957 | 65 | 80 | 1.0 | 9.0 | 0.00 | 0.01 | 0.00 | 27 | 1016.2 |
| 20260507180857 | 65 | 89 | 1.0 | 9.0 | 0.00 | 0.01 | 0.00 | 28 | 1016.2 |
| 20260507180458 | 65 | 64 | 3.0 | 9.0 | 0.00 | 0.01 | 0.00 | 32 | 1016.1 |
| 20260507175457 | 65 | 44 | 5.0 | 12.0 | 0.00 | 0.01 | 0.00 | 25 | 1015.9 |
| 20260507174957 | 65 | 111 | 2.0 | 12.0 | 0.00 | 0.01 | 0.00 | 17 | 1015.9 |
| 20260507174500 | 65 | 70 | 5.0 | 12.0 | 0.00 | 0.01 | 0.00 | 22 | 1016.0 |
| 20260507173957 | 64 | 54 | 3.0 | 12.0 | 0.00 | 0.01 | 0.00 | 22 | 1016.0 |
| 20260507173457 | 64 | 41 | 6.0 | 13.0 | 0.00 | 0.01 | 0.00 | 23 | 1016.1 |
| 20260507172958 | 64 | 61 | 3.0 | 13.0 | 0.00 | 0.01 | 0.00 | 17 | 1016.2 |
| 20260507172500 | 64 | 65 | 3.0 | 10.0 | 0.00 | 0.01 | 0.00 | 17 | 1016.1 |
| 20260507171958 | 64 | 76 | 3.0 | 10.0 | 0.00 | 0.01 | 0.00 | 17 | 1016.3 |
| 20260507170958 | 64 | 94 | 5.0 | 10.0 | 0.00 | 0.01 | 0.00 | 17 | 1016.4 |
| 20260507165957 | 63 | 54 | 2.0 | 13.0 | 0.00 | 0.01 | 0.00 | 17 | 1016.6 |
| 20260507165457 | 63 | 50 | 3.0 | 9.0 | 0.00 | 0.01 | 0.00 | 17 | 1016.7 |
| 20260507164459 | 63 | 39 | 3.0 | 13.0 | 0.00 | 0.01 | 0.00 | 17 | 1016.5 |
| 20260507163958 | 63 | 71 | 4.0 | 13.0 | 0.00 | 0.01 | 0.00 | 17 | 1016.4 |
| 20260507163500 | 63 | 103 | 4.0 | 10.0 | 0.00 | 0.01 | 0.00 | 17 | 1016.4 |
| 20260507162959 | 63 | 30 | 3.0 | 12.0 | 0.00 | 0.01 | 0.00 | 17 | 1016.2 |
| 20260507162500 | 63 | 87 | 5.0 | 12.0 | 0.00 | 0.01 | 0.00 | 17 | 1016.4 |
| 20260507160959 | 63 | 71 | 4.0 | 12.0 | 0.00 | 0.01 | 0.00 | 17 | 1016.4 |
| 20260507160457 | 63 | 44 | 3.0 | 15.0 | 0.00 | 0.01 | 0.00 | 17 | 1016.3 |
| 20260507155957 | 63 | 42 | 6.0 | 16.0 | 0.00 | 0.01 | 0.00 | 17 | 1016.3 |
| 20260507154457 | 62 | 51 | 6.0 | 15.0 | 0.00 | 0.01 | 0.00 | 17 | 1016.1 |
| 20260507153958 | 63 | 67 | 6.0 | 15.0 | 0.00 | 0.01 | 0.00 | 17 | 1016.3 |
| 20260507153457 | 63 | 58 | 3.0 | 14.0 | 0.00 | 0.01 | 0.00 | 17 | 1016.3 |
| 20260507152957 | 63 | 31 | 5.0 | 14.0 | 0.00 | 0.01 | 0.00 | 17 | 1016.2 |
| 20260507152457 | 63 | 49 | 3.0 | 13.0 | 0.00 | 0.01 | 0.00 | 17 | 1016.1 |
| 20260507151958 | 63 | 70 | 7.0 | 14.0 | 0.00 | 0.01 | 0.00 | 17 | 1016.1 |
| 20260507150958 | 62 | 24 | 4.0 | 18.0 | 0.00 | 0.01 | 0.00 | 17 | 1016.0 |
| 20260507150458 | 63 | 18 | 5.0 | 13.0 | 0.00 | 0.01 | 0.00 | 17 | 1015.9 |
| 20260507145957 | 63 | 47 | 6.0 | 14.0 | 0.00 | 0.01 | 0.00 | 17 | 1015.7 |
| 20260507145457 | 63 | 46 | 6.0 | 14.0 | 0.00 | 0.01 | 0.00 | 17 | 1015.7 |
| 20260507145001 | 62 | 26 | 6.0 | 13.0 | 0.00 | 0.01 | 0.00 | 17 | 1015.6 |
| 20260507143957 | 61 | 353 | 4.0 | 14.0 | 0.00 | 0.01 | 0.00 | 17 | 1015.8 |
| 20260507143457 | 61 | 41 | 5.0 | 14.0 | 0.00 | 0.01 | 0.00 | 17 | 1015.9 |
| 20260507142957 | 61 | 20 | 3.0 | 12.0 | 0.00 | 0.01 | 0.00 | 17 | 1016.1 |
| 20260507142500 | 61 | 60 | 6.0 | 13.0 | 0.00 | 0.01 | 0.00 | 17 | 1016.1 |
| 20260507141958 | 61 | 57 | 3.0 | 13.0 | 0.00 | 0.01 | 0.00 | 17 | 1016.0 |
| 20260507141457 | 61 | 357 | 6.0 | 13.0 | 0.00 | 0.01 | 0.00 | 17 | 1015.6 |
| 20260507140457 | 61 | 9 | 3.0 | 14.0 | 0.00 | 0.01 | 0.00 | 17 | 1015.7 |
| 20260507135457 | 61 | 356 | 6.0 | 15.0 | 0.00 | 0.01 | 0.00 | 17 | 1015.8 |
| 20260507134959 | 61 | 14 | 6.0 | 15.0 | 0.00 | 0.01 | 0.00 | 17 | 1016.2 |
| 20260507134458 | 61 | 341 | 3.0 | 14.0 | 0.00 | 0.01 | 0.00 | 17 | 1016.0 |
| 20260507133957 | 61 | 8 | 4.0 | 14.0 | 0.00 | 0.01 | 0.00 | 17 | 1016.0 |
| 20260507133458 | 61 | 47 | 4.0 | 12.0 | 0.00 | 0.01 | 0.00 | 17 | 1016.2 |
| 20260507132958 | 61 | 359 | 3.0 | 13.0 | 0.00 | 0.01 | 0.00 | 17 | 1016.0 |
| 20260507132459 | 61 | 28 | 5.0 | 13.0 | 0.00 | 0.01 | 0.00 | 17 | 1015.6 |
| 20260507131958 | 61 | 64 | 4.0 | 12.0 | 0.00 | 0.01 | 0.00 | 17 | 1015.6 |
| 20260507131500 | 61 | 3 | 6.0 | 12.0 | 0.00 | 0.01 | 0.00 | 17 | 1015.6 |
| 20260507130959 | 61 | 51 | 4.0 | 9.0 | 0.00 | 0.01 | 0.00 | 17 | 1015.7 |
| 20260507125957 | 61 | 354 | 3.0 | 9.0 | 0.00 | 0.01 | 0.00 | 17 | 1015.8 |
| 20260507125000 | 62 | 356 | 3.0 | 9.0 | 0.00 | 0.01 | 0.00 | 17 | 1015.9 |
| 20260507124457 | 62 | 23 | 2.0 | 10.0 | 0.00 | 0.01 | 0.00 | 17 | 1016.0 |
| 20260507123958 | 62 | 22 | 4.0 | 10.0 | 0.00 | 0.01 | 0.00 | 17 | 1015.7 |
| 20260507123457 | 62 | 91 | 4.0 | 9.0 | 0.00 | 0.01 | 0.00 | 17 | 1015.6 |
| 20260507122458 | 63 | 46 | 5.0 | 12.0 | 0.00 | 0.01 | 0.00 | 17 | 1015.4 |
| 20260507121500 | 63 | 358 | 3.0 | 10.0 | 0.00 | 0.01 | 0.00 | 17 | 1015.0 |
| 20260507120958 | 63 | 62 | 4.0 | 13.0 | 0.00 | 0.01 | 0.00 | 17 | 1015.1 |
| 20260507120500 | 63 | 69 | 3.0 | 13.0 | 0.00 | 0.01 | 0.00 | 17 | 1015.1 |
| 20260507115957 | 63 | 4 | 5.0 | 15.0 | 0.00 | 0.01 | 0.00 | 17 | 1014.9 |
| 20260507115458 | 63 | 9 | 3.0 | 15.0 | 0.00 | 0.01 | 0.00 | 17 | 1014.8 |
| 20260507114957 | 63 | 27 | 4.0 | 15.0 | 0.00 | 0.01 | 0.00 | 17 | 1014.4 |
| 20260507114458 | 63 | 31 | 5.0 | 12.0 | 0.00 | 0.01 | 0.00 | 17 | 1014.2 |
| 20260507113958 | 63 | 357 | 3.0 | 9.0 | 0.00 | 0.01 | 0.00 | 17 | 1014.0 |
| 20260507112958 | 63 | 32 | 3.0 | 10.0 | 0.00 | 0.01 | 0.00 | 17 | 1013.8 |
| 20260507112457 | 64 | 51 | 3.0 | 10.0 | 0.00 | 0.01 | 0.00 | 17 | 1013.9 |
| 20260507111958 | 64 | 69 | 3.0 | 8.0 | 0.00 | 0.01 | 0.00 | 17 | 1013.9 |
| 20260507111457 | 64 | 15 | 3.0 | 8.0 | 0.00 | 0.01 | 0.00 | 17 | 1013.9 |
| 20260507110958 | 64 | 25 | 2.0 | 7.0 | 0.00 | 0.01 | 0.00 | 17 | 1013.7 |
| 20260507105458 | 64 | 45 | 2.0 | 10.0 | 0.00 | 0.01 | 0.00 | 17 | 1013.9 |
| 20260507104959 | 64 | 61 | 3.0 | 10.0 | 0.00 | 0.01 | 0.00 | 17 | 1014.1 |
| 20260507104458 | 64 | 42 | 3.0 | 12.0 | 0.00 | 0.01 | 0.00 | 17 | 1013.9 |
| 20260507103958 | 64 | 17 | 3.0 | 12.0 | 0.00 | 0.01 | 0.00 | 17 | 1013.8 |
| 20260507103458 | 64 | 68 | 3.0 | 9.0 | 0.00 | 0.01 | 0.00 | 17 | 1013.8 |
| 20260507103001 | 64 | 66 | 3.0 | 9.0 | 0.00 | 0.01 | 0.00 | 17 | 1013.7 |
| 20260507102457 | 64 | 30 | 2.0 | 10.0 | 0.00 | 0.01 | 0.00 | 17 | 1013.6 |
| 20260507101958 | 64 | 47 | 2.0 | 12.0 | 0.00 | 0.01 | 0.00 | 17 | 1013.6 |
| 20260507101457 | 64 | 80 | 2.0 | 12.0 | 0.00 | 0.01 | 0.00 | 17 | 1013.4 |
| 20260507100501 | 64 | 17 | 3.0 | 9.0 | 0.00 | 0.01 | 0.00 | 17 | 1013.6 |
| 20260507095957 | 64 | 84 | 3.0 | 9.0 | 0.00 | 0.01 | 0.00 | 17 | 1013.6 |
| 20260507094958 | 64 | 1 | 3.0 | 10.0 | 0.00 | 0.01 | 0.00 | 17 | 1013.6 |
| 20260507094457 | 64 | 16 | 2.0 | 9.0 | 0.00 | 0.01 | 0.00 | 17 | 1013.5 |
| 20260507094000 | 64 | 51 | 3.0 | 9.0 | 0.00 | 0.01 | 0.00 | 17 | 1013.6 |
| 20260507093457 | 64 | 68 | 1.0 | 9.0 | 0.00 | 0.01 | 0.00 | 17 | 1013.7 |
| 20260507092958 | 64 | 65 | 1.0 | 8.0 | 0.00 | 0.01 | 0.00 | 17 | 1013.8 |
| 20260507091958 | 64 | 347 | 2.0 | 8.0 | 0.00 | 0.01 | 0.00 | 17 | 1013.8 |
| 20260507091459 | 64 | 84 | 3.0 | 8.0 | 0.00 | 0.01 | 0.00 | 17 | 1013.8 |
| 20260507090958 | 64 | 93 | 3.0 | 7.0 | 0.00 | 0.01 | 0.00 | 17 | 1014.0 |
| 20260507090500 | 64 | 0 | 1.0 | 7.0 | 0.00 | 0.01 | 0.00 | 17 | 1013.7 |
| 20260507085958 | 64 | 84 | 1.0 | 5.0 | 0.00 | 0.01 | 0.00 | 17 | 1013.7 |
| 20260507085458 | 64 | 92 | 1.0 | 3.0 | 0.00 | 0.01 | 0.00 | 17 | 1013.6 |
| 20260507085000 | 64 | 94 | 1.0 | 3.0 | 0.00 | 0.01 | 0.00 | 17 | 1013.4 |
| 20260507084458 | 64 | 18 | 2.0 | 12.0 | 0.00 | 0.01 | 0.00 | 17 | 1013.5 |
| 20260507083958 | 64 | 74 | 2.0 | 12.0 | 0.00 | 0.01 | 0.00 | 17 | 1013.4 |
| 20260507083458 | 64 | 55 | 3.0 | 12.0 | 0.00 | 0.01 | 0.00 | 17 | 1013.5 |
| 20260507083000 | 64 | 22 | 2.0 | 10.0 | 0.00 | 0.01 | 0.00 | 17 | 1013.6 |
| 20260507081958 | 64 | 23 | 3.0 | 10.0 | 0.00 | 0.01 | 0.00 | 17 | 1013.4 |
| 20260507081457 | 64 | 25 | 4.0 | 10.0 | 0.00 | 0.01 | 0.00 | 17 | 1013.2 |
| 20260507080958 | 64 | 23 | 3.0 | 9.0 | 0.00 | 0.01 | 0.00 | 17 | 1013.2 |
| 20260507080500 | 64 | 100 | 1.0 | 8.0 | 0.00 | 0.01 | 0.00 | 17 | 1013.3 |
| 20260507075958 | 64 | 32 | 3.0 | 7.0 | 0.00 | 0.01 | 0.00 | 17 | 1013.5 |
| 20260507075458 | 64 | 20 | 2.0 | 7.0 | 0.00 | 0.01 | 0.00 | 17 | 1013.7 |
| 20260507074958 | 64 | 17 | 1.0 | 7.0 | 0.00 | 0.01 | 0.00 | 17 | 1013.7 |
| 20260507074501 | 64 | 37 | 2.0 | 9.0 | 0.00 | 0.01 | 0.00 | 17 | 1013.8 |
| 20260507073459 | 64 | 68 | 2.0 | 10.0 | 0.00 | 0.01 | 0.00 | 17 | 1013.8 |
| 20260507073000 | 64 | 37 | 2.0 | 8.0 | 0.00 | 0.01 | 0.00 | 17 | 1013.8 |
| 20260507072459 | 64 | 40 | 2.0 | 10.0 | 0.00 | 0.01 | 0.00 | 17 | 1013.7 |
| 20260507071958 | 64 | 59 | 3.0 | 10.0 | 0.00 | 0.01 | 0.00 | 17 | 1013.7 |
| 20260507071458 | 64 | 86 | 3.0 | 7.0 | 0.00 | 0.01 | 0.00 | 17 | 1013.6 |
| 20260507070958 | 64 | 107 | 1.0 | 8.0 | 0.00 | 0.01 | 0.00 | 17 | 1013.7 |
| 20260507065958 | 65 | 76 | 2.0 | 8.0 | 0.00 | 0.01 | 0.00 | 17 | 1013.7 |
| 20260507065458 | 65 | 84 | 2.0 | 7.0 | 0.00 | 0.01 | 0.00 | 17 | 1013.9 |
| 20260507064958 | 65 | 49 | 2.0 | 8.0 | 0.00 | 0.01 | 0.00 | 17 | 1014.0 |
| 20260507064458 | 65 | 95 | 2.0 | 10.0 | 0.00 | 0.01 | 0.00 | 17 | 1014.0 |
| 20260507063458 | 65 | 72 | 2.0 | 7.0 | 0.00 | 0.01 | 0.00 | 17 | 1013.9 |
| 20260507062458 | 65 | 107 | 0.0 | 12.0 | 0.00 | 0.01 | 0.00 | 17 | 1013.5 |
| 20260507061958 | 65 | 65 | 2.0 | 12.0 | 0.00 | 0.01 | 0.00 | 17 | 1013.6 |
| 20260507061458 | 65 | 19 | 3.0 | 9.0 | 0.00 | 0.01 | 0.00 | 17 | 1013.6 |
| 20260507060958 | 65 | 100 | 1.0 | 9.0 | 0.00 | 0.01 | 0.00 | 17 | 1013.6 |
| 20260507060459 | 65 | 80 | 2.0 | 9.0 | 0.00 | 0.01 | 0.00 | 17 | 1013.7 |
| 20260507055958 | 65 | 68 | 3.0 | 17.0 | 0.00 | 0.01 | 0.00 | 17 | 1013.7 |
| 20260507054958 | 65 | 104 | 2.0 | 10.0 | 0.00 | 0.01 | 0.00 | 17 | 1013.5 |
| 20260507054458 | 65 | 69 | 3.0 | 9.0 | 0.00 | 0.01 | 0.00 | 17 | 1013.1 |
| 20260507053959 | 65 | 80 | 2.0 | 9.0 | 0.00 | 0.01 | 0.00 | 17 | 1012.8 |
| 20260507052459 | 65 | 97 | 3.0 | 9.0 | 0.00 | 0.01 | 0.00 | 17 | 1013.1 |
| 20260507051959 | 65 | 78 | 3.0 | 9.0 | 0.00 | 0.01 | 0.00 | 17 | 1013.2 |
| 20260507051458 | 65 | 70 | 2.0 | 9.0 | 0.00 | 0.01 | 0.00 | 17 | 1012.9 |
| 20260507051003 | 65 | 81 | 3.0 | 7.0 | 0.00 | 0.01 | 0.00 | 17 | 1013.0 |